Flag for Germany Past Weather in Brandenburg an der Havel, Brandenburg, Germany — Yesterday and Last 2 Weeks

Now
46 °F

Clear.


Feels Like: 45 °F
Forecast: 35 / 53 °F
Wind: 3 mph from Northwest

Location: Berlin-Tegel

Current Time: Apr 26, 2017 at 9:56:38 pm

Latest Report: Apr 26, 2017 at 9:20 pm


Visibility: 10 mi

Pressure: 29.89 "Hg

Humidity: 46%

Dew Point: 27 °F

Location of Brandenburg an der HavelLocation

Past Weather in Brandenburg an der Havel — Graph

°F

Brandenburg an der Havel Temperature Yesterday

Maximum temperature yesterday: 52 °F (at 4:20 pm)
Minimum temperature yesterday: 37 °F (at 11:20 pm)
Average temperature yesterday: 46 °F

High & Low Weather Summary for the Past Weeks

 TemperatureHumidityPressure
High59 °F (Apr 21, 2:50 pm)100% (Apr 17, 4:20 am)30.60 "Hg (Apr 17, 4:20 am)
Low28 °F (Apr 20, 4:20 am)34% (Apr 19, 4:50 pm)29.56 "Hg (Apr 25, 5:50 am)
Average44 °F70%30.02 "Hg
* Reported Apr 11 7:20 pm — Apr 26 7:50 pm, Brandenburg an der Havel, Weather by CustomWeather, © 2017

Note: Actual official high and low records may vary slightly from our data, if they occured in-between our weather recording intervals... More about our weather records

Advertising

Brandenburg an der Havel Weather History for the Previous 24 Hours

Scroll right to see more
 ConditionsComfort  
Time TempWeatherWind HumidityBarometerVisibility
7:50 pm
Wed, Apr 26
50 °FScattered showers. Broken clouds.2 mph37%29.89 "HgN/A
7:20 pm52 °FScattered showers. Scattered clouds.1 mph38%29.86 "HgN/A
6:50 pm52 °FScattered showers. Scattered clouds.6 mph44%29.86 "HgN/A
6:20 pm54 °FScattered showers. Scattered clouds.2 mph35%29.86 "HgN/A
5:50 pm50 °FScattered showers. Scattered clouds.3 mph40%29.86 "HgN/A
5:20 pm50 °FScattered showers. Scattered clouds.3 mph40%29.86 "HgN/A
4:50 pm50 °FScattered showers. Scattered clouds.7 mph43%29.86 "HgN/A
4:20 pm50 °FPassing clouds.8 mph40%29.86 "HgN/A
3:50 pm50 °FPassing clouds.7 mph43%29.86 "HgN/A
3:20 pm52 °FSunny.5 mph38%29.86 "Hg10 mi
2:50 pm52 °FPassing clouds.10 mph41%29.86 "HgN/A
2:20 pm50 °FPassing clouds.9 mph37%29.86 "HgN/A
1:50 pm52 °FScattered clouds.9 mph35%29.86 "HgN/A
1:20 pm50 °FBroken clouds.8 mph43%29.86 "HgN/A
12:50 pm52 °FPassing clouds.9 mph41%29.86 "HgN/A
12:20 pm50 °FScattered clouds.9 mph43%29.86 "HgN/A
11:50 am50 °FScattered clouds.9 mph50%29.86 "HgN/A
11:20 am50 °FScattered clouds.10 mph47%29.86 "HgN/A
10:50 am46 °FBroken clouds.7 mph53%29.86 "HgN/A
10:20 am46 °FScattered clouds.6 mph53%29.86 "HgN/A
9:50 am46 °FPartly sunny.6 mph53%29.86 "HgN/A
9:20 am45 °FPartly sunny.6 mph61%29.86 "HgN/A
8:50 am43 °FPassing clouds.5 mph66%29.86 "HgN/A
8:20 am43 °FPassing clouds.3 mph71%29.86 "HgN/A
7:50 am41 °FPassing clouds.3 mph76%29.83 "HgN/A
7:20 am37 °FSunny.2 mph87%29.83 "Hg10 mi
6:50 am36 °FSunny.1 mph93%29.83 "Hg10 mi
6:20 am34 °FSunny.No wind93%29.83 "Hg10 mi
5:50 am34 °FSunny.1 mph93%29.83 "Hg10 mi
5:20 am34 °FClear.1 mph93%29.80 "Hg10 mi
4:50 am34 °FClear.1 mph93%29.83 "Hg10 mi
4:20 am34 °FClear.1 mph87%29.83 "Hg10 mi
3:50 am34 °FClear.1 mph93%29.80 "Hg10 mi
3:20 am36 °FClear.1 mph87%29.80 "Hg10 mi
2:50 am36 °FClear.1 mph87%29.80 "Hg10 mi
2:20 am36 °FClear.1 mph87%29.80 "Hg10 mi
1:50 am36 °FClear.2 mph87%29.80 "Hg10 mi
1:20 am36 °FClear.2 mph81%29.80 "Hg10 mi
12:50 am37 °FClear.3 mph81%29.80 "Hg10 mi
12:20 am36 °FClear.3 mph87%29.80 "Hg10 mi
11:50 pm
Tue, Apr 25
37 °FClear.2 mph81%29.80 "Hg10 mi
11:20 pm37 °FClear.2 mph81%29.80 "Hg10 mi
10:50 pm39 °FPassing clouds.2 mph75%29.77 "HgN/A
10:20 pm41 °FPassing clouds.2 mph70%29.77 "HgN/A
9:50 pm43 °FPassing clouds.6 mph66%29.77 "HgN/A
9:20 pm45 °FPassing clouds.8 mph61%29.74 "HgN/A
Weather by CustomWeather, © 2017

See weather overviewHow to use our weather pages